Powrót do katalogu

CZ-6A DEB

AktywnySSO
NORAD 54323·DEBRIS·🇨🇳 China

Wystrzelony Nov 11, 2022 z Taiyuan Satellite Launch Center

Loading…

Następne Przeloty (najbliższe 24 godziny)

TLE

ŚwieżeSource: Space-Track

Epoka: Sep 14, 2026, 22:44 UTC

1 54323U 22151BS  26257.94769520  .00000444  00000-0  27117-3 0  9995
2 54323  98.8534 253.7568 0052639  76.9862 283.7178 14.10263546196942

Śledź CZ-6A DEB w czasie rzeczywistym z AllMySat

Download on the App Store